• En España
  • Lista de países
  • Para 7 días
  • Temperatura del agua
  • Mapa Satelital
  • El tiempo en el mapa
  • Informadores
  • user-avatar
    Iniciar sesión

    Tiempo cada hora Sicienko

    Hoy, 21 Octubre, Domingo

    Tiempo Temperatura Precipitaciones Viento Presión Humedad
    00:00 +7°C° 0 mm 2 mps 760 mmHg 91%
    01:00 +8°C° 0 mm 1 mps 760 mmHg 93%
    02:00 +8°C° 0 mm 1 mps 760 mmHg 94%
    03:00 +7°C° 0 mm 1 mps 760 mmHg 95%
    04:00 +7°C° 0 mm 1 mps 760 mmHg 95%
    05:00 +7°C° 0 mm 1 mps 760 mmHg 95%
    06:00 +6°C° 0 mm 0 mps 760 mmHg 95%
    07:00 +6°C° 0 mm 0 mps 761 mmHg 95%
    08:00 +7°C° 0 mm 0 mps 761 mmHg 87%
    09:00 +10°C° 0 mm 1 mps 761 mmHg 80%
    10:00 +11°C° 0 mm 1 mps 762 mmHg 73%
    11:00 +12°C° 0 mm 1 mps 762 mmHg 68%
    12:00 +13°C° 0 mm 2 mps 762 mmHg 63%
    13:00 +14°C° 0 mm 2 mps 762 mmHg 57%
    14:00 +14°C° 0 mm 2 mps 761 mmHg 59%
    15:00 +13°C° 0 mm 1 mps 761 mmHg 61%
    16:00 +13°C° 0 mm 1 mps 761 mmHg 63%
    17:00 +12°C° 0 mm 1 mps 761 mmHg 68%
    18:00 +10°C° 0 mm 2 mps 761 mmHg 72%
    19:00 +9°C° 0 mm 2 mps 761 mmHg 76%
    20:00 +8°C° 0 mm 2 mps 761 mmHg 79%
    21:00 +8°C° 0 mm 2 mps 761 mmHg 81%
    22:00 +7°C° 0 mm 2 mps 761 mmHg 83%
    23:00 +7°C° 0 mm 2 mps 761 mmHg 85%

    Mañana, 22 Octubre, Lunes

    Tiempo Temperatura Precipitaciones Viento Presión Humedad
    00:00 +7°C° 0 mm 2 mps 760 mmHg 87%
    01:00 +7°C° 0 mm 3 mps 760 mmHg 88%
    02:00 +5°C° 0 mm 3 mps 760 mmHg 89%
    03:00 +5°C° 0 mm 3 mps 759 mmHg 89%
    04:00 +5°C° 0 mm 3 mps 759 mmHg 90%
    05:00 +5°C° 0 mm 3 mps 759 mmHg 90%
    06:00 +5°C° 0 mm 3 mps 759 mmHg 90%
    07:00 +5°C° 0 mm 3 mps 759 mmHg 90%
    08:00 +7°C° 0 mm 3 mps 758 mmHg 84%
    09:00 +8°C° 0 mm 4 mps 758 mmHg 78%
    10:00 +10°C° 0 mm 4 mps 758 mmHg 71%
    11:00 +10°C° 0.1 mm 4 mps 758 mmHg 73%
    12:00 +10°C° 0.1 mm 4 mps 758 mmHg 75%
    13:00 +9°C° 0.1 mm 5 mps 758 mmHg 77%
    14:00 +10°C° 0.3 mm 4 mps 758 mmHg 78%
    15:00 +10°C° 0.3 mm 4 mps 758 mmHg 80%
    16:00 +10°C° 0.3 mm 4 mps 758 mmHg 81%
    17:00 +8°C° 0.1 mm 4 mps 758 mmHg 81%
    18:00 +8°C° 0.1 mm 3 mps 758 mmHg 81%
    19:00 +7°C° 0.1 mm 3 mps 758 mmHg 81%
    20:00 +7°C° 0 mm 3 mps 758 mmHg 81%
    21:00 +5°C° 0 mm 3 mps 759 mmHg 81%
    22:00 +5°C° 0 mm 3 mps 759 mmHg 81%
    23:00 +5°C° 0 mm 3 mps 759 mmHg 82%

    Pasado mañana, 23 Octubre, Martes

    Tiempo Temperatura Precipitaciones Viento Presión Humedad
    00:00 +4°C° 0 mm 3 mps 758 mmHg 84%
    01:00 +4°C° 0 mm 4 mps 758 mmHg 86%
    02:00 +4°C° 0 mm 4 mps 757 mmHg 86%
    03:00 +4°C° 0 mm 4 mps 757 mmHg 86%
    04:00 +3°C° 0 mm 5 mps 756 mmHg 86%
    05:00 +3°C° 0.2 mm 5 mps 755 mmHg 84%
    06:00 +3°C° 0.2 mm 6 mps 754 mmHg 82%
    07:00 +3°C° 0.2 mm 6 mps 753 mmHg 81%
    08:00 +4°C° 0.4 mm 7 mps 752 mmHg 80%
    09:00 +4°C° 0.4 mm 8 mps 751 mmHg 80%
    10:00 +5°C° 0.4 mm 9 mps 750 mmHg 79%
    11:00 +5°C° 0.7 mm 10 mps 749 mmHg 79%
    12:00 +6°C° 0.7 mm 10 mps 747 mmHg 79%
    13:00 +6°C° 0.7 mm 10 mps 746 mmHg 80%
    14:00 +7°C° 1.1 mm 10 mps 744 mmHg 81%
    15:00 +7°C° 1.1 mm 11 mps 743 mmHg 82%
    16:00 +8°C° 1.1 mm 11 mps 742 mmHg 83%
    17:00 +8°C° 1.7 mm 10 mps 741 mmHg 84%
    18:00 +9°C° 1.7 mm 10 mps 740 mmHg 84%
    19:00 +10°C° 1.7 mm 9 mps 739 mmHg 85%
    20:00 +10°C° 1.5 mm 9 mps 739 mmHg 82%
    21:00 +10°C° 1.5 mm 9 mps 738 mmHg 78%
    22:00 +10°C° 1.5 mm 9 mps 738 mmHg 75%
    23:00 +8°C° 0.1 mm 9 mps 738 mmHg 72%

    24 Octubre, Miércoles

    Tiempo Temperatura Precipitaciones Viento Presión Humedad
    00:00 +7°C° 0.1 mm 9 mps 738 mmHg 69%
    01:00 +6°C° 0.1 mm 9 mps 739 mmHg 66%
    02:00 +6°C° 0.1 mm 8 mps 739 mmHg 65%
    03:00 +5°C° 0.1 mm 8 mps 740 mmHg 63%
    04:00 +4°C° 0.1 mm 7 mps 741 mmHg 61%
    05:00 +4°C° 0 mm 7 mps 742 mmHg 61%
    06:00 +3°C° 0 mm 7 mps 742 mmHg 61%
    07:00 +3°C° 0 mm 7 mps 743 mmHg 60%
    08:00 +4°C° 0 mm 8 mps 744 mmHg 57%
    09:00 +5°C° 0 mm 9 mps 744 mmHg 55%
    10:00 +6°C° 0 mm 10 mps 745 mmHg 52%
    11:00 +6°C° 0 mm 10 mps 745 mmHg 50%
    12:00 +6°C° 0 mm 10 mps 746 mmHg 48%
    13:00 +7°C° 0 mm 10 mps 747 mmHg 47%
    14:00 +6°C° 0 mm 9 mps 747 mmHg 49%
    15:00 +6°C° 0 mm 8 mps 747 mmHg 51%
    16:00 +5°C° 0 mm 8 mps 748 mmHg 52%
    17:00 +4°C° 0 mm 7 mps 748 mmHg 55%
    18:00 +4°C° 0 mm 6 mps 749 mmHg 58%
    19:00 +3°C° 0 mm 5 mps 749 mmHg 60%
    20:00 +3°C° 0 mm 5 mps 749 mmHg 62%
    21:00 +4°C° 0 mm 4 mps 750 mmHg 63%
    22:00 +4°C° 0 mm 4 mps 750 mmHg 65%
    23:00 +3°C° 0 mm 4 mps 749 mmHg 68%

    25 Octubre, Jueves

    Tiempo Temperatura Precipitaciones Viento Presión Humedad
    00:00 +3°C° 0 mm 4 mps 749 mmHg 70%
    01:00 +3°C° 0 mm 4 mps 749 mmHg 73%
    02:00 +3°C° 0.1 mm 5 mps 748 mmHg 76%
    03:00 +3°C° 0.1 mm 5 mps 748 mmHg 80%
    04:00 +5°C° 0.1 mm 5 mps 747 mmHg 84%
    05:00 +5°C° 0.6 mm 6 mps 747 mmHg 85%
    06:00 +6°C° 0.6 mm 7 mps 746 mmHg 87%
    07:00 +9°C° 0.6 mm 7 mps 745 mmHg 89%
    08:00 +9°C° 0.2 mm 7 mps 745 mmHg 87%
    09:00 +10°C° 0.2 mm 8 mps 745 mmHg 85%
    10:00 +10°C° 0.2 mm 8 mps 744 mmHg 83%
    11:00 +10°C° 0.2 mm 8 mps 744 mmHg 79%
    12:00 +10°C° 0.2 mm 8 mps 744 mmHg 76%
    13:00 +11°C° 0.2 mm 9 mps 744 mmHg 72%
    14:00 +10°C° 0.1 mm 8 mps 744 mmHg 73%
    15:00 +10°C° 0.1 mm 7 mps 745 mmHg 73%
    16:00 +10°C° 0.1 mm 7 mps 745 mmHg 74%
    17:00 +9°C° 0.1 mm 6 mps 745 mmHg 74%
    18:00 +9°C° 0.1 mm 6 mps 745 mmHg 74%
    19:00 +8°C° 0.1 mm 5 mps 745 mmHg 75%
    20:00 +8°C° 0 mm 5 mps 746 mmHg 77%
    21:00 +8°C° 0 mm 4 mps 746 mmHg 79%
    22:00 +8°C° 0 mm 4 mps 746 mmHg 82%
    23:00 +7°C° 0.1 mm 4 mps 746 mmHg 83%

    26 Octubre, Viernes

    Tiempo Temperatura Precipitaciones Viento Presión Humedad
    00:00 +7°C° 0.1 mm 4 mps 746 mmHg 85%
    01:00 +7°C° 0.1 mm 4 mps 746 mmHg 87%
    02:00 +7°C° 0.1 mm 4 mps 746 mmHg 87%
    03:00 +7°C° 0.1 mm 4 mps 746 mmHg 86%
    04:00 +8°C° 0.1 mm 3 mps 746 mmHg 86%
    05:00 +8°C° 0 mm 3 mps 746 mmHg 87%
    06:00 +8°C° 0 mm 3 mps 746 mmHg 88%
    07:00 +8°C° 0 mm 3 mps 746 mmHg 90%
    08:00 +9°C° 0 mm 3 mps 746 mmHg 88%
    09:00 +8°C° 0 mm 4 mps 746 mmHg 86%
    10:00 +10°C° 0 mm 4 mps 746 mmHg 85%
    11:00 +9°C° 0 mm 5 mps 746 mmHg 82%
    12:00 +10°C° 0 mm 5 mps 745 mmHg 80%
    13:00 +10°C° 0 mm 5 mps 745 mmHg 77%
    14:00 +10°C° 0 mm 5 mps 744 mmHg 76%
    15:00 +10°C° 0 mm 5 mps 744 mmHg 76%
    16:00 +9°C° 0 mm 5 mps 744 mmHg 75%
    17:00 +9°C° 0 mm 5 mps 743 mmHg 76%
    18:00 +8°C° 0 mm 4 mps 743 mmHg 78%
    19:00 +8°C° 0 mm 4 mps 743 mmHg 79%
    20:00 +8°C° 0 mm 4 mps 742 mmHg 80%
    21:00 +8°C° 0 mm 4 mps 742 mmHg 81%
    22:00 +8°C° 0 mm 4 mps 742 mmHg 82%
    23:00 +7°C° 0 mm 4 mps 741 mmHg 83%
    Mostrar más